FIA6531 LUKK-LBSF

Flight info

Callsign FIA6531
Flight time 0h 59m
Altitude 28000
Route LIPTA T34 KODRU DCT PETOS DCT TIMUR N181 GOL
Aircraft A321/M-SDFGIJ1RWY/LB1

Departure

Time 2026-05-04 16:19
Airport Chişinău International Airport (LUKK)

Arrival

Time 2026-05-04 17:18
Airport Sofia Airport (LBSF)
Time Latitude Longitude Altitude Speed Heading
2026-05-04 15:32 46.93265 28.93719 330 ft 0 kts 97°
2026-05-04 16:05 46.93258 28.93762 328 ft 8 kts 117°
2026-05-04 16:06 46.93209 28.93780 325 ft 7 kts 179°
2026-05-04 16:06 46.93133 28.93691 330 ft 7 kts 274°
2026-05-04 16:07 46.93140 28.93592 329 ft 9 kts 277°
2026-05-04 16:07 46.93182 28.93028 346 ft 19 kts 278°
2026-05-04 16:08 46.93200 28.92855 357 ft 16 kts 278°
2026-05-04 16:08 46.93241 28.92349 362 ft 17 kts 277°
2026-05-04 16:09 46.93259 28.92098 367 ft 10 kts 268°
2026-05-04 16:09 46.93150 28.92000 372 ft 13 kts 196°
2026-05-04 16:10 46.92988 28.91991 375 ft 9 kts 179°
2026-05-04 16:11 46.92919 28.91992 379 ft 0 kts 179°
2026-05-04 16:12 46.92913 28.91993 379 ft 0 kts 175°
2026-05-04 16:13 46.92902 28.91994 379 ft 0 kts 178°
2026-05-04 16:13 46.92894 28.91994 380 ft 0 kts 179°
2026-05-04 16:17 46.92888 28.91994 380 ft 4 kts 179°
2026-05-04 16:18 46.92758 28.92040 383 ft 12 kts 109°
2026-05-04 16:18 46.92765 28.92407 372 ft 70 kts 88°
2026-05-04 16:19 46.92844 28.96546 1136 ft 158 kts 86°
2026-05-04 16:19 46.92914 28.99882 1930 ft 182 kts 85°
2026-05-04 16:20 46.92917 29.05622 2603 ft 247 kts 104°
2026-05-04 16:20 46.90149 29.08691 3833 ft 276 kts 178°
2026-05-04 16:21 46.85233 29.04621 6171 ft 286 kts 225°
2026-05-04 16:22 46.82312 29.00475 7569 ft 296 kts 225°
2026-05-04 16:22 46.77784 28.94036 9585 ft 313 kts 224°
2026-05-04 16:23 46.72805 28.87009 10557 ft 363 kts 224°
2026-05-04 16:24 46.65157 28.76212 12664 ft 392 kts 224°
2026-05-04 16:25 46.61201 28.70647 13928 ft 400 kts 223°
2026-05-04 16:26 46.53038 28.59239 16246 ft 413 kts 223°
2026-05-04 16:26 46.46771 28.50492 17903 ft 422 kts 223°
2026-05-04 16:27 46.42501 28.44534 18871 ft 428 kts 223°
2026-05-04 16:28 46.36015 28.35536 20275 ft 435 kts 223°
2026-05-04 16:28 46.29429 28.26345 21674 ft 441 kts 227°
2026-05-04 16:29 46.21271 28.12896 23484 ft 450 kts 230°
2026-05-04 16:30 46.15077 28.02528 24587 ft 456 kts 229°
2026-05-04 16:31 46.10887 27.95655 25302 ft 461 kts 229°
2026-05-04 16:31 46.04483 27.85199 26352 ft 467 kts 229°
2026-05-04 16:32 45.97998 27.74585 27360 ft 473 kts 229°
2026-05-04 16:33 45.93623 27.67447 27943 ft 478 kts 229°
2026-05-04 16:33 45.89295 27.60418 28024 ft 466 kts 229°
2026-05-04 16:34 45.84897 27.53283 28026 ft 485 kts 229°
2026-05-04 16:34 45.82639 27.49628 28021 ft 494 kts 229°
2026-05-04 16:35 45.68773 27.27290 28026 ft 502 kts 228°
2026-05-04 16:36 45.61787 27.16112 28020 ft 503 kts 228°
2026-05-04 16:37 45.54779 27.04932 28019 ft 503 kts 228°
2026-05-04 16:38 45.45417 26.90076 28026 ft 504 kts 228°
2026-05-04 16:39 45.33649 26.71534 28038 ft 506 kts 227°
2026-05-04 16:40 45.24221 26.56727 28047 ft 507 kts 227°
2026-05-04 16:41 45.12327 26.38217 28047 ft 508 kts 227°
2026-05-04 16:43 45.00425 26.19780 28041 ft 509 kts 227°
2026-05-04 16:43 44.93224 26.08696 28050 ft 509 kts 227°
2026-05-04 16:45 44.78852 25.86685 28043 ft 510 kts 227°
2026-05-04 16:46 44.66781 25.68391 28032 ft 511 kts 227°
2026-05-04 16:47 44.57101 25.53734 28027 ft 512 kts 227°
2026-05-04 16:48 44.47360 25.39092 28033 ft 514 kts 226°
2026-05-04 16:49 44.37615 25.24525 28039 ft 514 kts 226°
2026-05-04 16:50 44.27808 25.09966 28046 ft 515 kts 226°
2026-05-04 16:51 44.21511 25.00633 28036 ft 515 kts 226°
2026-05-04 16:52 44.11669 24.86112 28038 ft 516 kts 226°
2026-05-04 16:53 44.04254 24.75238 28044 ft 516 kts 226°
2026-05-04 16:54 43.94348 24.60770 28053 ft 517 kts 226°
2026-05-04 16:55 43.79424 24.39117 28057 ft 518 kts 226°
2026-05-04 16:56 43.74559 24.32109 28068 ft 492 kts 225°
2026-05-04 16:56 43.66042 24.24797 27804 ft 475 kts 196°
2026-05-04 16:57 43.62866 24.23726 27541 ft 466 kts 182°
2026-05-04 16:57 43.56459 24.23362 27039 ft 457 kts 176°
2026-05-04 16:58 43.46915 24.23011 27082 ft 461 kts 187°
2026-05-04 16:58 43.43861 24.21638 27100 ft 466 kts 206°
2026-05-04 16:59 43.38743 24.16195 26936 ft 467 kts 232°
2026-05-04 17:00 43.31176 24.01955 25920 ft 459 kts 236°
2026-05-04 17:00 43.25601 23.91368 25193 ft 454 kts 236°
2026-05-04 17:01 43.21901 23.84397 24711 ft 450 kts 236°
2026-05-04 17:01 43.18223 23.77492 24241 ft 446 kts 236°
2026-05-04 17:02 43.14588 23.70670 23464 ft 439 kts 236°
2026-05-04 17:02 43.11051 23.64028 22451 ft 430 kts 236°
2026-05-04 17:03 43.09295 23.60737 21931 ft 424 kts 235°
2026-05-04 17:03 43.07570 23.57509 21159 ft 418 kts 235°
2026-05-04 17:03 43.04182 23.51191 19753 ft 406 kts 235°
2026-05-04 17:04 43.00887 23.45069 18425 ft 394 kts 235°
2026-05-04 17:04 42.97684 23.39131 16962 ft 383 kts 234°
2026-05-04 17:05 42.95090 23.34317 15799 ft 374 kts 234°
2026-05-04 17:05 42.92037 23.28661 14477 ft 365 kts 234°
2026-05-04 17:06 42.89052 23.23146 13053 ft 357 kts 234°
2026-05-04 17:06 42.87603 23.20473 12776 ft 341 kts 234°
2026-05-04 17:07 42.84933 23.15567 12498 ft 304 kts 235°
2026-05-04 17:07 42.84110 23.14058 12415 ft 297 kts 235°
2026-05-04 17:07 42.82499 23.11099 12215 ft 285 kts 235°
2026-05-04 17:07 42.81353 23.08925 11927 ft 280 kts 242°
2026-05-04 17:08 42.80565 23.06528 11610 ft 275 kts 257°
2026-05-04 17:08 42.80349 23.01496 10945 ft 266 kts 279°
2026-05-04 17:08 42.80499 22.98983 10613 ft 266 kts 278°
2026-05-04 17:09 42.80640 22.96480 10274 ft 264 kts 278°
2026-05-04 17:09 42.80528 22.93970 9912 ft 270 kts 257°
2026-05-04 17:09 42.79660 22.91701 9505 ft 274 kts 229°
2026-05-04 17:10 42.76257 22.89730 8700 ft 272 kts 173°
2026-05-04 17:10 42.72401 22.94012 7622 ft 234 kts 98°
2026-05-04 17:11 42.72233 22.96161 7391 ft 225 kts 89°
2026-05-04 17:11 42.72146 22.98258 7223 ft 224 kts 90°
2026-05-04 17:11 42.71921 23.02459 6863 ft 221 kts 91°
2026-05-04 17:12 42.71804 23.04528 6699 ft 221 kts 91°
2026-05-04 17:12 42.71569 23.08692 6317 ft 220 kts 91°
2026-05-04 17:13 42.71221 23.14784 5435 ft 212 kts 91°
2026-05-04 17:14 42.70879 23.20730 4580 ft 205 kts 91°
2026-05-04 17:14 42.70768 23.22622 4305 ft 195 kts 93°
2026-05-04 17:14 42.70572 23.25983 3821 ft 160 kts 92°
2026-05-04 17:15 42.70487 23.27425 3594 ft 151 kts 90°
2026-05-04 17:15 42.70326 23.30209 3181 ft 147 kts 92°
2026-05-04 17:16 42.70162 23.32993 2782 ft 148 kts 94°
2026-05-04 17:16 42.69914 23.37174 2196 ft 148 kts 94°
2026-05-04 17:17 42.69834 23.38553 1998 ft 147 kts 94°
2026-05-04 17:17 42.69628 23.42065 1750 ft 62 kts 95°
2026-05-04 17:18 42.69601 23.42410 1750 ft 19 kts 101°
2026-05-04 17:18 42.69509 23.42690 1750 ft 15 kts 124°
2026-05-04 17:19 42.69403 23.42672 1751 ft 11 kts 272°
2026-05-04 17:19 42.69417 23.42431 1751 ft 18 kts 275°
2026-05-04 17:20 42.69441 23.42035 1751 ft 21 kts 274°
2026-05-04 17:20 42.69464 23.41653 1750 ft 20 kts 275°
2026-05-04 17:20 42.69475 23.41471 1750 ft 19 kts 274°
2026-05-04 17:21 42.69468 23.41226 1742 ft 8 kts 220°
2026-05-04 17:21 42.69350 23.41183 1747 ft 10 kts 192°
2026-05-04 17:22 42.69281 23.41163 1748 ft 11 kts 192°
2026-05-04 17:22 42.69207 23.41140 1750 ft 11 kts 193°
2026-05-04 17:23 42.69094 23.40944 1749 ft 9 kts 253°
2026-05-04 17:23 42.69075 23.40864 1743 ft 8 kts 251°
2026-05-04 17:23 42.69063 23.40726 1747 ft 3 kts 269°
2026-05-04 17:24 42.69048 23.40706 1746 ft 4 kts 209°
2026-05-04 17:24 42.68999 23.40686 1744 ft 0 kts 196°